Regional Weather Roundup
Issued by NWS Upton, NY

Current Version | Previous Version | Graphics & Text | Print | Product List | Glossary Off
Versions: 1 2 3 4 5 6 7 8 9 10 11 12 13 14 15 16 17 18 19 20 21 22 23 24 25 26 27 28 29 30 31 32 33 34 35 36 37 38 39 40 41 42 43 44 45 46 47 48 49 50

000
ASUS41 KOKX 260209
RWROKX

REGIONAL WEATHER ROUNDUP
NATIONAL WEATHER SERVICE NEW YORK NY
1000 PM EDT TUE APR 25 2017

NOTE: "FAIR" INDICATES FEW OR NO CLOUDS BELOW 12,000 FEET WITH NO
SIGNIFICANT WEATHER AND/OR OBSTRUCTIONS TO VISIBILITY.

NYZ071-072-176-178-NJZ106-104-260300-
NEW YORK CITY METRO AREA

CITY           SKY/WX    TMP DP  RH WIND       PRES   REMARKS
Central Park   RAIN      51  51 100 NE16G28   29.91F FOG
Wall St Helipt CLOUDY    54  52  94 NE21      29.87F
Bronx Bot Gard   N/A     52  50  93 N8        29.91S
LaGuardia APRT RAIN      52  50  93 NE20      29.88F FOG
Kennedy INTL   LGT RAIN  56  55  97 NE14      29.87F
Breezy Point     N/A     55 N/A N/A NE16G26     N/A
Newark/Liberty LGT RAIN  53  51  93 NE18G25   29.88F FOG
Teterboro      RAIN      54  52  93 NE14G22   29.88F FOG
$$

NYZ177-179-078>081-260300-
LONG ISLAND NEW YORK

CITY           SKY/WX    TMP DP  RH WIND       PRES   REMARKS
Jones Beach      N/A     52 N/A N/A E25G31      N/A
Matinecock PT    N/A     50 N/A N/A E26         N/A
Farmingdale    LGT RAIN  57  56  96 E14G23    29.87F
MacArthur/ISP  CLOUDY    56  56 100 E15G26    29.89F
Shirley        LGT RAIN  54  54 100 VRB6G22   29.91F
Mt Sinai Harb    N/A    N/A N/A N/A E15G22      N/A
Westhampton    LGT RAIN  53  51  93 E13G22    29.93F FOG
East Hampton   CLOUDY    52  51  97 E14G20    29.94F
Montauk          N/A     50  50 100 E12G20    29.98F
$$

NYZ052-065-067-260300-
HUDSON VALLEY

CITY           SKY/WX    TMP DP  RH WIND       PRES   REMARKS
White Plains   LGT RAIN  53  51  93 E15G22    29.90F FOG
Larchmont Harb   N/A     50 N/A N/A NE25G31     N/A
Croton O-T Hud   N/A     52 N/A N/A NW3         N/A
Newburgh       LGT RAIN  50  50 100 E13G18    29.96F FOG
Montgomery     LGT RAIN  51  49  92 NE12      29.95S
Poughkeepsie   LGT RAIN  50  49  96 N7        29.96F FOG
Albany         LGT RAIN  51  47  86 NE5       30.04F FOG
$$

NJZ001-105-106-008-010-013-015-019>022-104-260300-
NEW JERSEY

CITY           SKY/WX    TMP DP  RH WIND       PRES   REMARKS
Newark/Liberty LGT RAIN  53  51  93 NE18G25   29.88F FOG
Teterboro      RAIN      54  52  93 NE14G22   29.88F FOG
Caldwell       LGT RAIN  53  52  96 NE8       29.90F
Somerville     LGT RAIN  55  52  89 VRB7      29.85S FOG
Linden         RAIN      53  51  93 NE14G20   29.86F
Sussex         RAIN      52  51  97 NE12      29.93S
Andover          N/A     52  51  97 NE8       29.90S
Trenton        RAIN      54  53  97 NE13      29.82S
Millville      CLOUDY    57  57 100 NE10      29.73S
Atlantic City  CLOUDY    58  56  93 NE18      29.73F FOG
Wrightstown    CLOUDY    55  54  94 NE15      29.78S
Toms River     CLOUDY    54  54 100 NE8       29.80F FOG
Belmar         CLOUDY    53  52  96 E15       29.83F
$$

PAZ047>061-062-071-260300-
EASTERN PENNSYLVANIA

CITY           SKY/WX    TMP DP  RH WIND       PRES   REMARKS
Philadelphia   RAIN      56  54  93 NE17G24   29.79S
Allentown      LGT RAIN  56  52  86 NE14      29.85F
Scranton       CLOUDY    55  50  83 NE10G18   29.87R
$$

CTZ002-004>006-009-010-012-RIZ004-006-007-MAZ004-011-015-260300-
SOUTHERN NEW ENGLAND
 IN CT

CITY           SKY/WX    TMP DP  RH WIND       PRES   REMARKS
Bradley INTL   LGT RAIN  48  47  96 N10       30.05F
Hartford       CLOUDY    50  49  96 N12       30.02F
Danbury        HVY RAIN  49  49 100 NE10      29.96F FOG
Wtrbury/Oxford CLOUDY    48  45  87 NE12G21   29.98F
Bridgeport     LGT RAIN  54  51  90 NE16      29.94F FOG
Meriden        RAIN      51  49  92 NE7       30.01S FOG
New Haven      RAIN      53  51  93 NE14G21   29.95F FOG
Chester        RAIN      50  50 100 NE10      29.99F
Groton         LGT RAIN  55  53  93 E17       29.99F FOG
Wilimantic     LGT RAIN  51  49  92 NE9       30.03F FOG

 IN RI

CITY           SKY/WX    TMP DP  RH WIND       PRES   REMARKS
Providence     HVY RAIN  50  50 100 N10       30.06F FOG
Block Island   NOT AVBL
Westerly       HVY RAIN  54  53  97 E9        30.02S FOG
 IN MA

CITY           SKY/WX    TMP DP  RH WIND       PRES   REMARKS
Boston         LGT RAIN  47  47 100 NE17      30.11F FOG
Worcester      LGT RAIN  43  42  97 NE12G20   30.08F VSB 1/2
Westfield      LGT RAIN  48  48 100 N10       30.06F
Provincetown   CLOUDY    53  52  96 SE17G24   30.09F
Nantucket      FOG       52  50  93 E22G31    30.03F VSB 1/2
$$

ANZ330-335-338-340-345-350-353-355-260300-
COASTAL MARINE OBSERVATIONS


STATION/POSITION TIME  SKY/WX   TEMP    WIND        PRES    VSBY  WAVE
                                AIR SEA DIR/SP/G                  HT/PER
                 (UTC)          (F)     (DEG/KT/KT) (MB)    (MI)  (FT/S)
NY HARB ENTRANCE 0050            50 47   70/ 19/ 23 1010.5          9/10
20 S FIRE ISLAND 0150            51 47   80/ 21/ 25 1008.9         11/11
GREAT SOUTH BAY  0115            53 55   80/ 23/ 27   N/A
23 SSW MONTAUK P 0050            49 45              1013.2          9/ 7
15 E BARNEGAT LI 0130               49                N/A          10/11
HUDSON CANYON    0050            54 47  110/ 19/ 23 1009.6         15/11
KINGS POINT      0130            51 48   90/ 11/ 17 1011.9
EXECUTION ROCKS  NOT AVBL
CENTRAL LI SOUND 0100            49      80/ 19/ 23   N/A           3/ 3
EASTERN LI SOUND NOT AVBL
ROBBINS REEF     0130            52      40/ 18/ 22 1011.6
$$


>>>>>>>>>>>>>>>>>>>>>>>>>>>> KEY <<<<<<<<<<<<<<<<<<<<<<<<<<<
>                                                          <
>     SKY/WX - Sky Condition/Present Weather               <
>     TMP    - Temperature in Fahrenheit                   <
>     DP     - Dew Point in Fahrenheit                     <
>     RH     - Relative Humidity in Percent                <
>     WIND   - Direction (from) and Speed in MPH           <
>     PRES   - Mean Sea Level Pressure (inches of Hg)      <
>     WCI    - Wind Chill Index                            <
>     VSB    - VISIBILITY IN MILES                         <
>     HX     - HEAT INDEX                                  <
>     TC     - TEMPERATURE IN CELSIUS                      <
>     VRB    - VARIABLE WIND DIRECTION                     <
>                                                          <
>>>>>>>>>>>>>>>>>>>>>>>>>>>> KEY <<<<<<<<<<<<<<<<<<<<<<<<<<<



USA.gov is the U.S. government's official web portal to all federal, state and local government web resources and services.